{"data":{"norad_id":68312,"epoch":"2026-05-24T22:25:36.136128Z","epoch_age_seconds":91123,"freshness":"FRESH","line1":"1 68312U 26057U   26144.93444602  .00259158  00000+0  16855-2 0  9995","line2":"2 68312  97.2848 271.2625 0001304  79.8191 280.3221 15.75199365 10299","mean_motion":15.75199365,"eccentricity":0.0001304,"inclination_deg":97.2848,"raan_deg":271.2625,"arg_perigee_deg":79.8191,"mean_anomaly_deg":280.3221,"bstar":0.0016855,"rev_number":1029,"period_min":91.416999777676,"perigee_km":343.18734997889,"apogee_km":344.94049998013,"semimajor_km":6722.2009249795,"source":"CELESTRAK","updated_at":"2026-05-25T13:38:21.919396Z"}}